CW9873 Weather Reports


time (UTC)temp
C
wind
direction
speed
KPH
gust
KPH
rain 1hr
cm
rain 24hr
cm
rain mn
cm
humidity
%
barometer
mb
20260507074102 12 263 3.2 8.0 0.13 0.69 0.15 93 1006.9
20260507073830 12 327 3.2 8.0 0.05 0.61 0.08 93 1006.9
20260507073108 12 338 1.6 6.4 0.03 0.58 0.05 93 1006.3
20260507072607 12 280 0.0 0.0 0.00 0.56 0.03 93 1005.9
20260507072104 12 280 0.0 0.0 0.00 0.56 0.03 93 1005.9
20260507071604 12 280 0.0 0.0 0.00 0.56 0.03 93 1005.7
20260507071103 12 280 0.0 0.0 0.00 0.56 0.03 93 1005.4
20260507070609 12 280 0.0 0.0 0.00 0.56 0.03 93 1005.5
20260507065602 12 280 0.0 0.0 0.03 0.56 0.03 93 1005.4
20260507065102 12 280 0.0 0.0 0.03 0.56 0.03 93 1005.3
20260507064100 12 284 0.0 0.0 0.03 0.56 0.03 93 1005.5
20260507063601 12 290 0.0 0.0 0.03 0.56 0.03 93 1005.4
20260507063102 12 290 0.0 1.6 0.03 0.56 0.03 93 1005.5
20260507062602 12 290 0.0 1.6 0.03 0.56 0.03 93 1005.5
20260507062100 12 290 0.0 1.6 0.03 0.56 0.03 93 1005.5
20260507061558 12 216 0.0 3.2 0.03 0.56 0.03 93 1005.6
20260507061056 12 216 0.0 3.2 0.03 0.56 0.03 93 1005.7
20260507060556 12 216 0.0 0.0 0.03 0.56 0.03 93 1005.5
20260507060055 12 216 0.0 1.6 0.03 0.56 0.03 93 1005.6
20260507055550 12 216 0.0 1.6 0.00 0.53 0.00 93 1005.7
20260507055050 12 216 0.0 3.2 0.00 0.53 0.00 93 1005.6
20260507054549 12 216 1.6 3.2 0.00 0.53 0.00 93 1005.9
20260507054049 12 241 0.0 3.2 0.00 0.53 0.00 93 1006.4
20260507053547 12 234 0.0 1.6 0.00 0.53 0.00 93 1006.4
20260507053045 12 226 0.0 3.2 0.00 0.53 0.00 93 1006.2
20260507052805 12 205 0.0 3.2 0.00 0.53 0.00 93 1006.4
20260507052041 12 237 0.0 1.6 0.00 0.53 0.00 93 1006.2
20260507051540 12 240 0.0 3.2 0.00 0.53 0.00 93 1006.4
20260507051040 12 251 1.6 4.8 0.00 0.53 0.00 93 1006.3
20260507050539 12 224 1.6 4.8 0.00 0.53 0.00 93 1006.5
20260507050034 12 215 1.6 6.4 0.00 0.53 0.00 93 1006.5
20260507045531 12 206 1.6 6.4 0.00 0.53 0.00 93 1006.6
20260507045252 12 223 1.6 6.4 0.00 0.53 0.00 93 1006.7
20260507044530 12 182 1.6 4.8 0.00 0.53 0.00 93 1006.6
20260507044027 12 151 1.6 6.4 0.00 0.53 0.00 93 1006.6
20260507043525 12 278 1.6 8.0 0.00 0.53 0.00 93 1006.5
20260507043025 12 186 3.2 8.0 0.00 0.53 0.00 93 1006.4
20260507042526 12 276 1.6 6.4 0.00 0.53 0.00 93 1006.5
20260507042024 12 229 3.2 9.7 0.00 0.53 0.00 93 1006.5
20260507041523 12 201 3.2 9.7 0.00 0.53 0.00 92 1006.6
20260507041252 12 180 3.2 9.7 0.00 0.53 0.00 92 1006.4
20260507040524 12 188 3.2 11.3 0.00 0.53 0.00 92 1006.5
20260507040022 12 209 1.6 11.3 0.00 0.53 0.00 92 1006.6
20260507035519 12 197 3.2 11.3 0.00 0.53 0.53 92 1006.6
20260507035245 12 267 3.2 11.3 0.00 0.53 0.53 92 1006.8
20260507034516 12 276 3.2 11.3 0.00 0.53 0.53 92 1006.8
20260507034014 12 220 1.6 11.3 0.00 0.53 0.53 92 1006.6
20260507033514 12 198 1.6 6.4 0.00 0.53 0.53 92 1006.7
20260507033015 12 184 1.6 6.4 0.00 0.53 0.53 92 1006.7
20260507032513 12 188 1.6 6.4 0.00 0.53 0.53 92 1006.8
20260507032014 12 194 1.6 12.9 0.00 0.53 0.53 93 1006.7
20260507031515 12 240 3.2 12.9 0.00 0.53 0.53 92 1006.8
20260507031005 12 212 4.8 11.3 0.00 0.53 0.53 92 1006.9
20260507030507 12 216 3.2 11.3 0.00 0.53 0.53 92 1006.7
20260507030230 12 202 3.2 9.7 0.00 0.53 0.53 92 1006.7
20260507025506 12 189 4.8 16.1 0.00 0.53 0.53 92 1006.6
20260507025005 12 185 4.8 16.1 0.00 0.53 0.53 92 1006.7
20260507024504 12 208 3.2 11.3 0.00 0.53 0.53 92 1006.8
20260507024224 12 190 4.8 9.7 0.00 0.53 0.53 92 1006.8
20260507023502 12 197 4.8 11.3 0.00 0.53 0.53 92 1007.0
20260507023001 12 180 4.8 14.5 0.00 0.53 0.53 92 1007.0
20260507022501 12 265 4.8 14.5 0.00 0.53 0.53 92 1007.0
20260507022229 12 239 4.8 11.3 0.00 0.53 0.53 92 1007.0
20260507021733 12 210 4.8 11.3 0.00 0.53 0.53 92 1007.1
20260507021001 12 227 4.8 16.1 0.00 0.53 0.53 92 1007.0
20260507020501 12 204 4.8 16.1 0.00 0.53 0.53 92 1007.1
20260507020227 12 232 4.8 12.9 0.00 0.53 0.53 92 1006.9
20260507015501 12 227 3.2 11.3 0.00 0.53 0.53 92 1006.9
20260507015001 12 223 3.2 12.9 0.00 0.53 0.53 92 1006.9
20260507014503 12 227 4.8 12.9 0.00 0.53 0.53 92 1006.9
20260507014001 12 203 4.8 11.3 0.00 0.53 0.53 92 1007.1
20260507013502 12 201 4.8 14.5 0.00 0.53 0.53 92 1007.2
20260507012959 12 172 4.8 14.5 0.00 0.53 0.53 92 1007.2
20260507012503 12 205 4.8 11.3 0.00 0.53 0.53 92 1007.3
20260507012002 12 190 3.2 8.0 0.00 0.53 0.53 92 1007.2
20260507011456 12 175 3.2 11.3 0.00 0.53 0.53 92 1007.3
20260507010956 12 264 4.8 14.5 0.00 0.53 0.53 92 1007.3
20260507010458 12 224 4.8 14.5 0.00 0.53 0.53 92 1007.5
20260507010226 12 177 4.8 16.1 0.00 0.53 0.53 92 1007.5
20260507005502 12 171 4.8 16.1 0.00 0.53 0.53 92 1007.5
20260507004958 12 217 3.2 12.9 0.00 0.53 0.53 92 1007.6
20260507004456 12 231 4.8 14.5 0.00 0.53 0.53 92 1007.6
20260507003955 12 198 4.8 14.5 0.00 0.53 0.53 92 1007.5
20260507003454 12 217 6.4 16.1 0.00 0.53 0.53 92 1007.5
20260507002953 12 222 6.4 16.1 0.00 0.53 0.53 92 1007.4
20260507002454 12 208 6.4 12.9 0.00 0.53 0.53 92 1007.3
20260507002225 12 207 6.4 12.9 0.00 0.53 0.53 92 1007.2
20260507001453 12 202 6.4 14.5 0.00 0.53 0.53 92 1007.3
20260507000954 12 190 6.4 16.1 0.03 0.53 0.53 92 1007.2
20260507000725 12 235 8.0 20.9 0.03 0.53 0.53 92 1007.2
20260506235952 12 165 8.0 20.9 0.03 0.53 0.53 92 1007.2
20260506235453 12 199 6.4 20.9 0.03 0.53 0.53 92 1007.3
20260506234949 12 234 6.4 19.3 0.03 0.53 0.53 92 1007.3
20260506234451 12 201 8.0 20.9 0.03 0.53 0.53 92 1007.3
20260506233949 12 217 8.0 22.5 0.05 0.53 0.53 92 1007.3
20260506233449 12 173 6.4 22.5 0.05 0.53 0.53 92 1007.2
20260506232948 12 211 8.0 22.5 0.05 0.53 0.53 92 1007.2
20260506232450 12 188 8.0 22.5 0.05 0.53 0.53 92 1007.2
20260506231947 12 251 8.0 17.7 0.10 0.53 0.53 92 1007.2
20260506231446 12 192 8.0 22.5 0.13 0.53 0.53 91 1007.2
20260506230946 12 217 9.7 25.7 0.13 0.51 0.51 92 1007.2
20260506230447 12 208 8.0 25.7 0.15 0.51 0.51 91 1007.2
20260506225946 12 213 8.0 20.9 0.18 0.51 0.51 91 1007.2
20260506225445 12 190 8.0 20.9 0.20 0.51 0.51 91 1007.2
20260506224944 12 227 8.0 27.4 0.23 0.51 0.51 91 1007.2
20260506224710 12 254 8.0 27.4 0.23 0.51 0.51 91 1007.0
20260506223943 12 190 6.4 22.5 0.23 0.48 0.48 91 1007.1
20260506223707 12 192 8.0 17.7 0.23 0.48 0.48 91 1006.9
20260506222941 12 175 9.7 14.5 0.25 0.48 0.48 91 1007.1
20260506222440 12 188 9.7 19.3 0.25 0.48 0.46 91 1007.1
20260506221940 12 210 8.0 19.3 0.20 0.43 0.43 91 1007.1
20260506221440 12 173 6.4 17.7 0.20 0.41 0.41 91 1007.1
20260506220941 12 248 8.0 22.5 0.18 0.38 0.38 91 1007.2
20260506220441 12 165 8.0 24.1 0.18 0.36 0.36 91 1007.2
20260506215941 12 227 8.0 25.7 0.15 0.33 0.33 91 1007.3
20260506215718 12 219 8.0 25.7 0.13 0.30 0.30 91 1007.3
20260506214942 12 192 8.0 24.1 0.10 0.28 0.28 91 1007.3
20260506214442 12 235 6.4 19.3 0.10 0.28 0.28 90 1007.5
20260506214211 12 240 8.0 24.1 0.08 0.25 0.25 90 1007.5
20260506213717 13 175 8.0 24.1 0.08 0.25 0.23 90 1007.6
20260506212936 13 207 9.7 22.5 0.08 0.23 0.23 90 1007.6
20260506212714 13 201 9.7 22.5 0.08 0.23 0.23 90 1007.6
20260506211934 13 270 8.0 22.5 0.08 0.23 0.23 90 1007.6
20260506211433 13 210 8.0 22.5 0.05 0.20 0.20 90 1007.8
20260506210934 13 186 8.0 19.3 0.05 0.20 0.20 90 1007.7
20260506210434 13 229 8.0 22.5 0.05 0.18 0.18 90 1007.8
20260506205437 13 175 11.3 27.4 0.05 0.18 0.18 90 1007.8
20260506204432 13 186 11.3 32.2 0.05 0.18 0.18 90 1008.0
20260506203930 13 240 9.7 32.2 0.05 0.18 0.18 89 1008.0
20260506203430 13 219 9.7 30.6 0.05 0.18 0.15 89 1008.1
20260506202932 13 220 8.0 30.6 0.05 0.15 0.15 89 1008.1
20260506202431 13 225 8.0 17.7 0.08 0.15 0.15 89 1008.1
20260506201929 13 154 8.0 27.4 0.10 0.15 0.15 89 1008.1
20260506201429 13 102 9.7 27.4 0.13 0.15 0.15 89 1008.2
20260506200929 13 244 8.0 24.1 0.15 0.15 0.15 89 1008.2
20260506200430 13 199 8.0 22.5 0.13 0.13 0.13 89 1008.2
20260506195931 13 182 9.7 32.2 0.13 0.13 0.13 89 1008.4
20260506195428 13 252 9.7 32.2 0.13 0.13 0.13 89 1008.2
20260506194925 13 227 9.7 24.1 0.13 0.13 0.13 89 1008.3
20260506194416 13 170 9.7 25.7 0.13 0.13 0.13 88 1008.4
20260506193914 13 160 8.0 25.7 0.13 0.13 0.13 89 1008.3
20260506193410 13 125 8.0 19.3 0.13 0.13 0.13 88 1008.4
20260506192923 13 219 9.7 30.6 0.10 0.10 0.10 88 1008.5
20260506192142 13 227 6.4 19.3 0.05 0.05 0.05 86 1008.6
20260506190913 14 196 8.0 22.5 0.00 0.00 0.00 85 1008.6
20260506190411 15 236 9.7 25.7 0.00 0.00 0.00 84 1008.9
20260506185410 15 147 11.3 25.7 0.00 0.00 0.00 82 1008.9
20260506185143 15 103 9.7 25.7 0.00 0.00 0.00 80 1008.9
20260506184410 15 219 9.7 24.1 0.00 0.00 0.00 80 1009.0
20260506184139 15 129 12.9 30.6 0.00 0.00 0.00 80 1009.0
20260506183412 16 212 11.3 30.6 0.00 0.00 0.00 80 1009.0
20260506182908 16 177 9.7 24.1 0.00 0.00 0.00 80 1009.0
20260506182410 16 168 11.3 24.1 0.00 0.00 0.00 79 1009.0
20260506182143 16 201 11.3 25.7 0.00 0.00 0.00 80 1009.2
20260506181409 16 188 11.3 29.0 0.00 0.00 0.00 79 1009.2
20260506181138 16 262 11.3 30.6 0.00 0.00 0.00 79 1009.4
20260506180408 16 200 12.9 38.6 0.00 0.00 0.00 79 1009.4
20260506175908 16 205 14.5 38.6 0.00 0.00 0.00 79 1009.3
20260506175408 16 165 11.3 27.4 0.00 0.00 0.00 79 1009.4
20260506174911 16 204 8.0 25.7 0.00 0.00 0.00 78 1009.4
20260506174408 16 149 9.7 33.8 0.00 0.00 0.00 78 1009.6
20260506173908 16 231 14.5 33.8 0.00 0.00 0.00 79 1009.7
20260506173409 16 229 14.5 32.2 0.00 0.00 0.00 78 1009.7
20260506172908 17 278 12.9 32.2 0.00 0.00 0.00 78 1009.8
20260506172410 17 205 12.9 32.2 0.00 0.00 0.00 77 1010.0
20260506171907 17 213 11.3 32.2 0.00 0.00 0.00 77 1010.2
20260506171409 17 196 11.3 37.0 0.00 0.00 0.00 77 1010.0
20260506170910 17 219 14.5 37.0 0.00 0.00 0.00 77 1009.9
20260506170409 17 188 12.9 35.4 0.00 0.00 0.00 76 1009.8
20260506165908 18 193 12.9 32.2 0.00 0.00 0.00 76 1009.9
20260506165410 17 151 14.5 32.2 0.00 0.00 0.00 77 1010.0
20260506164408 18 222 11.3 30.6 0.00 0.00 0.00 75 1010.1
20260506163908 17 171 11.3 30.6 0.00 0.00 0.00 77 1010.2
20260506163404 17 180 11.3 24.1 0.00 0.00 0.00 78 1010.4
20260506162906 17 242 9.7 33.8 0.00 0.00 0.00 78 1010.6
20260506162417 17 203 8.0 33.8 0.00 0.00 0.00 78 1010.4
20260506161905 17 233 9.7 20.9 0.00 0.00 0.00 78 1010.5
20260506161404 16 196 9.7 22.5 0.00 0.00 0.00 79 1010.7
20260506160904 16 209 8.0 29.0 0.00 0.00 0.00 78 1010.8
20260506160405 17 209 11.3 33.8 0.00 0.00 0.00 78 1010.7
20260506155902 17 113 9.7 33.8 0.00 0.00 0.00 77 1010.8
20260506155405 17 228 9.7 38.6 0.00 0.00 0.00 76 1011.0
20260506154408 18 196 11.3 33.8 0.00 0.00 0.00 74 1010.8
20260506153904 19 213 9.7 27.4 0.00 0.00 0.00 73 1010.7
20260506153403 19 205 8.0 25.7 0.00 0.00 0.00 72 1010.9
20260506152903 19 157 9.7 25.7 0.00 0.00 0.00 72 1010.9
20260506152402 18 138 11.3 25.7 0.00 0.00 0.00 74 1010.9
20260506151902 19 199 9.7 37.0 0.00 0.00 0.00 73 1010.9
20260506151401 19 205 11.3 37.0 0.00 0.00 0.00 74 1011.0
20260506150902 18 138 9.7 32.2 0.00 0.00 0.00 76 1011.0
20260506150400 18 206 9.7 27.4 0.00 0.00 0.00 74 1011.0
20260506145902 18 198 9.7 27.4 0.00 0.00 0.00 74 1011.1
20260506145401 18 207 9.7 35.4 0.00 0.00 0.00 76 1011.2
20260506144901 18 203 9.7 35.4 0.00 0.00 0.00 75 1011.2
20260506144405 18 222 8.0 32.2 0.00 0.00 0.00 75 1011.1
20260506144130 18 186 8.0 32.2 0.00 0.00 0.00 76 1010.9
20260506143402 18 228 8.0 29.0 0.00 0.00 0.00 76 1010.9
20260506142902 18 236 8.0 29.0 0.00 0.00 0.00 75 1011.0
20260506142402 18 240 9.7 32.2 0.00 0.00 0.00 76 1011.0
20260506141902 17 198 11.3 32.2 0.00 0.00 0.00 79 1011.2
20260506141401 17 244 8.0 25.7 0.00 0.00 0.00 77 1011.1
20260506140902 17 173 8.0 29.0 0.00 0.00 0.00 77 1011.1
20260506140358 17 173 11.3 29.0 0.00 0.00 0.00 78 1011.0
20260506140124 17 88 9.7 20.9 0.00 0.00 0.00 79 1010.8
20260506135357 17 199 8.0 20.9 0.00 0.00 0.00 78 1010.7
20260506135130 17 166 9.7 24.1 0.00 0.00 0.00 78 1010.7
20260506134357 17 218 9.7 25.7 0.00 0.00 0.00 78 1011.0
20260506134121 17 229 8.0 25.7 0.00 0.00 0.00 77 1011.1
20260506133627 18 215 8.0 27.4 0.00 0.00 0.00 76 1011.0
20260506132857 17 209 9.7 27.4 0.00 0.00 0.00 78 1011.1
20260506132357 17 211 8.0 20.9 0.00 0.00 0.00 79 1011.1
20260506131859 17 209 8.0 32.2 0.00 0.00 0.00 79 1011.2
20260506131356 16 207 8.0 32.2 0.00 0.00 0.00 80 1011.3
20260506130854 16 180 8.0 25.7 0.00 0.00 0.00 80 1011.3
20260506130353 16 232 9.7 25.7 0.00 0.00 0.00 81 1011.4
20260506125855 16 198 11.3 27.4 0.00 0.00 0.00 81 1011.3
20260506125354 15 202 8.0 27.4 0.00 0.00 0.00 81 1011.4
20260506124854 15 167 6.4 24.1 0.00 0.00 0.00 81 1011.3
20260506124354 16 160 6.4 20.9 0.00 0.00 0.00 82 1011.3
20260506123854 15 178 8.0 24.1 0.00 0.00 0.00 82 1011.3
20260506123352 15 232 9.7 24.1 0.00 0.00 0.00 83 1011.2
20260506123114 15 212 9.7 22.5 0.00 0.00 0.00 83 1011.3
20260506122614 15 177 9.7 24.1 0.00 0.00 0.00 83 1011.3
20260506121850 15 215 8.0 24.1 0.00 0.00 0.00 83 1011.4
20260506121349 15 286 6.4 24.1 0.00 0.00 0.00 84 1011.4
20260506120849 15 194 8.0 24.1 0.00 0.00 0.00 84 1011.4
20260506120349 15 234 9.7 24.1 0.00 0.00 0.00 84 1011.5
20260506115851 15 180 8.0 19.3 0.00 0.00 0.00 84 1011.5
20260506115356 14 202 6.4 19.3 0.00 0.00 0.00 84 1011.5
20260506114348 14 217 4.8 12.9 0.00 0.00 0.00 85 1011.6
20260506113847 14 207 6.4 22.5 0.00 0.00 0.00 85 1011.6
20260506113348 13 199 8.0 22.5 0.00 0.00 0.00 85 1011.7
20260506112847 13 195 6.4 17.7 0.00 0.00 0.00 86 1011.8
20260506112347 13 173 6.4 20.9 0.00 0.00 0.00 86 1011.7
20260506111847 13 187 6.4 20.9 0.00 0.00 0.00 86 1011.7
20260506111347 13 185 6.4 17.7 0.00 0.00 0.00 86 1011.8
20260506110847 13 168 6.4 19.3 0.00 0.00 0.00 86 1011.7
20260506110348 13 226 8.0 20.9 0.00 0.00 0.00 86 1011.7
20260506105848 13 186 8.0 25.7 0.00 0.00 0.00 86 1011.6
20260506105347 13 178 6.4 25.7 0.00 0.00 0.00 86 1011.6
20260506104847 13 178 6.4 25.7 0.00 0.00 0.00 86 1011.6
20260506104348 13 214 6.4 20.9 0.00 0.00 0.00 86 1011.6
20260506103846 13 197 6.4 20.9 0.00 0.00 0.00 86 1011.5
20260506103347 13 232 6.4 17.7 0.00 0.00 0.00 86 1011.5
20260506102847 13 224 6.4 19.3 0.00 0.00 0.00 86 1011.4
20260506102347 13 160 6.4 19.3 0.00 0.00 0.00 87 1011.4
20260506101842 13 225 6.4 20.9 0.00 0.00 0.00 86 1011.4
20260506101343 13 182 9.7 32.2 0.00 0.00 0.00 87 1011.3
20260506100345 13 229 9.7 25.7 0.00 0.00 0.00 87 1011.4
20260506095843 13 236 9.7 25.7 0.00 0.00 0.00 87 1011.3
20260506095342 13 204 8.0 24.1 0.00 0.00 0.00 87 1011.2
20260506094844 13 199 8.0 20.9 0.00 0.00 0.00 87 1011.2
20260506094343 13 191 8.0 20.9 0.00 0.00 0.00 87 1011.2
20260506093843 13 158 8.0 20.9 0.00 0.00 0.00 87 1011.3
20260506093336 13 178 8.0 22.5 0.00 0.00 0.00 87 1011.2
20260506092837 13 240 9.7 22.5 0.00 0.00 0.00 87 1011.3
20260506092337 13 198 8.0 22.5 0.00 0.00 0.00 87 1011.3
20260506091837 13 207 8.0 22.5 0.00 0.00 0.00 87 1011.4
20260506091337 13 221 8.0 27.4 0.00 0.00 0.00 87 1011.4
20260506090838 13 146 9.7 27.4 0.00 0.00 0.00 87 1011.4
20260506090337 13 173 9.7 24.1 0.00 0.00 0.00 87 1011.4
20260506085836 13 192 9.7 24.1 0.00 0.00 0.00 87 1011.4
20260506085335 13 207 11.3 37.0 0.00 0.00 0.00 87 1011.5
20260506084835 13 170 11.3 37.0 0.00 0.00 0.00 87 1011.5
20260506084334 13 178 9.7 22.5 0.00 0.00 0.00 87 1011.6
20260506083833 13 198 9.7 35.4 0.00 0.00 0.00 87 1011.6
20260506083332 13 164 9.7 35.4 0.00 0.00 0.00 87 1011.7
20260506082832 13 167 6.4 20.9 0.00 0.00 0.00 86 1011.7
20260506082332 13 190 6.4 17.7 0.00 0.00 0.00 86 1011.7
20260506081831 13 97 8.0 17.7 0.00 0.00 0.00 86 1011.7
20260506081334 13 227 9.7 25.7 0.00 0.00 0.00 86 1011.9
20260506080830 13 235 11.3 27.4 0.00 0.00 0.00 86 1011.8
20260506080330 13 235 11.3 30.6 0.00 0.00 0.00 86 1011.7
20260506080105 14 194 9.7 30.6 0.00 0.00 0.00 86 1011.8